Gulkana, AK

6:51 AM AKDT on June 29, 2017 (GMT -0800)
Gulkana

Weather History for PAGK - August, 2013

Change the Weather History Date:

Monday, August 19, 2013

  Actual Average Record
Temperature  
Mean Temperature 54 °F -  
Max Temperature 63 °F 64 °F 79 °F (1977)
Min Temperature 46 °F 41 °F 26 °F (1998)
Degree Days  
Heating Degree Days 10    
Growing Degree Days 4 (Base 50)    
Moisture  
Dew Point 43 °F    
Average Humidity 66    
Maximum Humidity 90    
Minimum Humidity 41    
Precipitation  
Precipitation 0.00 in - - ()
Sea Level Pressure  
Sea Level Pressure 29.69 in    
Wind  
Wind Speed 9 mph (SSE)    
Max Wind Speed 20 mph    
Max Gust Speed 28 mph    
Visibility 10 miles    
Events      
Averages and records for this station are not official NWS values.
T = Trace of Precipitation, MM = Missing Value Source: NWS Daily Summary

Daily Weather History Graph

Daily Weather History Graph

Search for Another Location

Airport or City:

Trip Planner

Search our weather history database for the weather conditions in past years. The results will help you decide how hot, cold, wet, or windy it might be!

Date:

Astronomy

Aug. 19, 2013 Rise Set
Actual Time 5:57 AM AKDT 9:31 PM AKDT
Civil Twilight 5:02 AM AKDT 10:25 PM AKDT
Nautical Twilight 3:38 AM AKDT 11:47 PM AKDT
Astronomical Twilight Sun does not set 1:12 AM AKDT
Moon 8:23 PM AKDT (8/19) 4:18 AM AKDT (8/19)
Length of Visible Light 17h 23m
Length of Day
15h 34m
Waxing Gibbous, 98% of the Moon is Illuminated
Aug 19
Waxing Gibbous
Aug 20
Full
Aug 28
Last Quarter
Sep 5
New
Sep 12
First Quarter

Hourly Weather History & Observations

Time (AKDT) Temp. Dew Point Humidity Pressure Visibility Wind Dir Wind Speed Gust Speed Precip Events Conditions
12:53 AM 50.0 °F 45.0 °F 83% 29.66 in 10.0 mi SSW 6.9 mph - N/A   Overcast
1:53 AM 50.0 °F 44.1 °F 80% 29.67 in 10.0 mi South 4.6 mph - N/A   Overcast
2:53 AM 48.9 °F 44.1 °F 83% 29.67 in 10.0 mi South 4.6 mph - N/A   Overcast
3:53 AM 48.0 °F 44.1 °F 86% 29.67 in 10.0 mi South 4.6 mph - N/A   Overcast
4:53 AM 46.9 °F 44.1 °F 90% 29.68 in 10.0 mi South 4.6 mph - N/A   Overcast
5:53 AM 46.9 °F 43.0 °F 86% 29.68 in 10.0 mi South 8.1 mph - N/A   Mostly Cloudy
6:53 AM 46.9 °F 44.1 °F 90% 29.68 in 10.0 mi South 5.8 mph - N/A   Overcast
7:53 AM 48.0 °F 44.1 °F 86% 29.69 in 10.0 mi South 6.9 mph - N/A   Overcast
8:53 AM 50.0 °F 45.0 °F 83% 29.69 in 10.0 mi South 6.9 mph - N/A   Mostly Cloudy
9:53 AM 53.1 °F 45.0 °F 74% 29.70 in 10.0 mi SSE 10.4 mph - N/A   Mostly Cloudy
10:53 AM 57.0 °F 44.1 °F 62% 29.69 in 10.0 mi SE 11.5 mph - N/A   Clear
11:53 AM 57.9 °F 42.1 °F 56% 29.69 in 10.0 mi SSE 8.1 mph - N/A   Scattered Clouds
12:53 PM 59.0 °F 42.1 °F 53% 29.69 in 10.0 mi SSE 12.7 mph - N/A   Scattered Clouds
1:53 PM 62.1 °F 43.0 °F 50% 29.68 in 10.0 mi SSE 13.8 mph 21.9 mph N/A   Mostly Cloudy
2:53 PM 62.1 °F 44.1 °F 52% 29.68 in 10.0 mi SSE 17.3 mph 21.9 mph N/A   Partly Cloudy
3:53 PM 62.1 °F 44.1 °F 52% 29.68 in 10.0 mi SSE 16.1 mph 27.6 mph N/A   Mostly Cloudy
4:53 PM 62.1 °F 43.0 °F 50% 29.68 in 10.0 mi SE 18.4 mph 27.6 mph N/A   Mostly Cloudy
5:53 PM 61.0 °F 42.1 °F 50% 29.69 in 10.0 mi SSE 16.1 mph 25.3 mph N/A   Clear
6:53 PM 59.0 °F 41.0 °F 51% 29.71 in 10.0 mi SSE 19.6 mph 24.2 mph N/A   Clear
7:53 PM 57.9 °F 41.0 °F 53% 29.72 in 10.0 mi SSE 13.8 mph 23.0 mph N/A   Clear
8:53 PM 55.9 °F 41.0 °F 57% 29.73 in 10.0 mi SSE 12.7 mph - N/A   Clear
9:53 PM 54.0 °F 39.9 °F 59% 29.74 in 10.0 mi SSE 15.0 mph - N/A   Clear
10:53 PM 53.1 °F 39.9 °F 61% 29.74 in 10.0 mi SSE 15.0 mph - N/A   Mostly Cloudy
11:53 PM 53.1 °F 39.9 °F 61% 29.75 in 10.0 mi SSE 13.8 mph 23.0 mph N/A   Partly Cloudy